Content
SEND FEEDBACK

Daily
Averages
Monthly
Summary
United States of America

HENDERSON, TEXAS


Home > North America > United States > Texas
Elevation: 440 feet     Latitude: 32 09N     Longitude: 094 51W

WEATHER
 
SELECT A DAY
Number of Records: 142,700;   Date Range: 10/21/08 - 9/30/14
 
SHARE

PRINT THIS DATA

[ ← Previous Day ]
WEATHER ALMANAC - FEBRUARY 5, 2013
[ Next Day → ]
[ °C ]   °F
Weather ElementAverageHighLow
Temperature59.5 °F69.8 °F (3:15 pm) (4:55 pm)
Dewpoint55.1 °F59 °F (9:15 am) (7:00 pm)
Humidity86.3 %100 % (1:35 am)60 % (3:15 pm)
Barometer29.97 in30.04 in (11:35 pm)29.90 in (2:55 am)
Wind Speed1.8 mph5.8 mph (9:15 am)
Weather ElementAverage
Visibility5 mi
Wind DirectionNNE (37.2 °)

Weather ElementTotal
Precipitation---
Heating Degree Days30.1 (Base 65)
Averaged from 69 records on February 5, 2013
WEATHER CONDITIONS BREAKOUT
WIND DIRECTION BREAKOUT
WEATHER BY HOUR - FEBRUARY 5, 2013
[ °C ]   °F
Local TimeTemperatureDewpointHumidityBarometerVisibilityWind DirectionWind SpeedGust SpeedPrecipitationEventsConditions
12:35 AM55.4 °F53.6 °F94 %29.91 in0.8 miCalmOvercast
12:55 AM55.4 °F53.6 °F94 %29.92 in2.0 miCalmOvercast
1:15 AM55.4 °F53.6 °F94 %29.92 in2.5 miCalmOvercast
1:35 AM55.4 °F55.4 °F100 %29.92 in1.5 miCalmOvercast
1:55 AM55.4 °F55.4 °F100 %29.92 in0.5 miCalmFogFog
2:15 AM55.4 °F55.4 °F100 %29.91 in0.2 miCalmFogFog
2:35 AM57.2 °F55.4 °F94 %29.91 in0.5 miCalmFogFog
2:55 AM57.2 °F55.4 °F94 %29.90 in0.2 miCalmFogFog
3:15 AM57.2 °F55.4 °F94 %29.90 in0.2 miCalmFogFog
3:35 AM57.2 °F55.4 °F94 %29.90 in0.2 miCalmFogFog
3:55 AM57.2 °F55.4 °F94 %29.91 in0.2 miCalmFogFog
4:15 AM57.2 °F55.4 °F94 %29.91 in0.2 miCalmFogFog
4:35 AM57.2 °F55.4 °F94 %29.91 in0.2 miCalmFogFog
4:55 AM57.2 °F55.4 °F94 %29.91 in0.2 miCalmFogFog
5:15 AM59.0 °F55.4 °F88 %29.92 in0.2 miCalmFogFog
5:35 AM59.0 °F57.2 °F94 %29.92 in0.2 miCalmFogFog
5:55 AM59.0 °F57.2 °F94 %29.92 in0.2 miCalmFogFog
6:15 AM59.0 °F57.2 °F94 %29.93 in0.2 miCalmFogFog
6:35 AM59.0 °F57.2 °F94 %29.94 in0.2 miCalmFogFog
6:55 AM59.0 °F55.4 °F88 %29.94 in0.2 miCalmFogFog
7:15 AM57.2 °F55.4 °F94 %29.95 in0.2 miEast (80°)3.5 mphFogFog
7:35 AM59.0 °F55.4 °F88 %29.96 in0.2 miCalmFogFog
7:55 AM59.0 °F55.4 °F88 %29.98 in0.2 miENE (60°)3.5 mphFogFog
8:15 AM59.0 °F55.4 °F88 %29.98 in0.2 miEast (80°)3.5 mphFogFog
8:35 AM59.0 °F57.2 °F94 %29.99 in0.5 miEast (80°)3.5 mphFogFog
8:55 AM59.0 °F57.2 °F94 %29.99 in0.8 miEast (100°)3.5 mphOvercast
9:15 AM59.0 °F59.0 °F100 %30.00 in4.0 miSE (130°)5.8 mphOvercast
9:35 AM59.0 °F59.0 °F100 %30.00 in7.0 miEast (90°)4.6 mphOvercast
9:55 AM59.0 °F59.0 °F100 %30.01 in5.0 miENE (60°)4.6 mphOvercast
10:15 AM59.0 °F59.0 °F100 %30.02 in4.0 miENE (60°)4.6 mphOvercast
10:35 AM59.0 °F59.0 °F100 %30.03 in4.0 miNE (50°)4.6 mphOvercast
10:55 AM59.0 °F59.0 °F100 %30.02 in4.0 miEast (100°)4.6 mphOvercast
11:15 AM60.8 °F59.0 °F94 %30.02 in7.0 miEast (90°)4.6 mphOvercast
11:35 AM60.8 °F59.0 °F94 %30.01 in5.0 miEast (90°)3.5 mphOvercast
11:55 AM62.6 °F59.0 °F88 %30.01 in7.0 miESE (120°)3.5 mphOvercast
12:15 PM62.6 °F59.0 °F88 %30.00 in10.0 miEast (100°)4.6 mphOvercast
12:35 PM62.6 °F59.0 °F88 %30.00 in10.0 miEast (90°)4.6 mphOvercast
12:55 PM64.4 °F59.0 °F83 %29.99 in10.0 miCalmOvercast
1:15 PM64.4 °F57.2 °F77 %29.98 in10.0 miCalmOvercast
1:35 PM64.4 °F55.4 °F73 %29.98 in10.0 miCalmOvercast
1:55 PM64.4 °F55.4 °F73 %29.97 in10.0 miCalmOvercast
2:15 PM68.0 °F57.2 °F68 %29.97 in10.0 miCalmOvercast
2:35 PM68.0 °F55.4 °F64 %29.96 in10.0 miCalmOvercast
2:55 PM68.0 °F55.4 °F64 %29.96 in10.0 miSE (140°)4.6 mphOvercast
3:15 PM69.8 °F55.4 °F60 %29.95 in10.0 miNNE (30°)3.5 mphMostly Cloudy
3:35 PM69.8 °F55.4 °F60 %29.95 in10.0 miEast (100°)3.5 mphMostly Cloudy
3:55 PM69.8 °F55.4 °F60 %29.95 in10.0 miNE (40°)4.6 mphScattered Clouds
4:15 PM69.8 °F55.4 °F60 %29.95 in10.0 miCalmMostly Cloudy
4:35 PM68.0 °F55.4 °F64 %29.95 in10.0 miCalmOvercast
4:55 PM0.0 °F0.0 °F29.95 inEast (90°)4.6 mph
5:15 PM68.0 °F55.4 °F64 %29.95 in10.0 miCalmScattered Clouds
5:35 PM68.0 °F55.4 °F64 %29.95 in10.0 miESE (110°)3.5 mphScattered Clouds
5:55 PM66.2 °F55.4 °F68 %29.95 in10.0 miCalmOvercast
6:15 PM64.4 °F55.4 °F73 %29.96 in10.0 miEast (90°)3.5 mphMostly Cloudy
6:35 PM64.4 °F55.4 °F73 %29.96 in10.0 miCalmScattered Clouds
6:55 PM62.6 °F55.4 °F77 %29.97 in10.0 miCalmMostly Cloudy
7:15 PM60.8 °F55.4 °F82 %29.98 in10.0 miCalmMostly Cloudy
8:15 PM60.8 °F55.4 °F82 %30.00 in10.0 miNE (50°)4.6 mphScattered Clouds
8:35 PM59.0 °F55.4 °F88 %30.01 in7.0 miNE (50°)5.8 mphScattered Clouds
8:55 PM59.0 °F55.4 °F88 %30.02 in7.0 miNE (50°)3.5 mphClear
9:15 PM59.0 °F53.6 °F82 %30.02 in7.0 miENE (60°)3.5 mphClear
9:35 PM57.2 °F53.6 °F88 %30.03 in7.0 miENE (70°)3.5 mphClear
9:55 PM57.2 °F53.6 °F88 %30.03 in5.0 miCalmClear
10:15 PM55.4 °F53.6 °F94 %30.03 in5.0 miCalmClear
10:35 PM55.4 °F53.6 °F94 %30.03 in4.0 miCalmClear
10:55 PM55.4 °F53.6 °F94 %30.03 in5.0 miEast (90°)3.5 mphClear
11:15 PM55.4 °F53.6 °F94 %30.03 in5.0 miEast (90°)3.5 mphClear
11:35 PM55.4 °F53.6 °F94 %30.04 in5.0 miCalmMostly Cloudy
11:55 PM55.4 °F53.6 °F94 %30.04 in5.0 miSE (130°)3.5 mphOvercast
Hourly data recorded from KRFI, located miles away from Henderson, Texas







STORIES FROM OUR PARTNERS